Location: Unspecified
(44.0704°N, 88.6889°W)
Time: 13:04:15
(UTC+01:00)

Okean 3 - Pass Details

Date: 05 October 2020
Orbit: 575 x 602 km, 82.5° (Epoch: 26 October)

Event Time Altitude Azimuth Distance (km) Brightness Sun altitude
Exits shadow 12:32:03 13° 207° (SSW) 1,719 5.5 -16.2°
Maximum altitude 12:35:41 52° 281° (WNW) 747 3.6 -15.5°
Drops below altitude 10° 12:39:51 10° 359° (N) 1,931 6.2 -14.8°
Sets 12:42:06 0° 4° (N) 2,832 7.1 -14.4°
